Pian Rosa, Italy

7:31 AM CET on February 28, 2017 (GMT +0100)
Pian Rosa

Weather History for LIMH - December, 2012

Change the Weather History Date:

Friday, December 28, 2012

  Actual Average Record
Temperature  
Mean Temperature 12 °F -  
Max Temperature 19 °F 17 °F 26 °F (2011)
Min Temperature 5 °F 6 °F -18 °F (2005)
Degree Days  
Heating Degree Days 53    
Moisture  
Dew Point 7 °F    
Average Humidity 81    
Maximum Humidity 93    
Minimum Humidity 51    
Precipitation  
Precipitation 0.00 in - - ()
Sea Level Pressure  
Sea Level Pressure 30.11 in    
Wind  
Wind Speed 36 mph ()    
Max Wind Speed 48 mph    
Max Gust Speed -    
Visibility 2.5 miles    
Events Fog , Snow    
Averages and records for this station are not official NWS values.
T = Trace of Precipitation, MM = Missing Value Source: Averaged Metar Reports

Daily Weather History Graph

Daily Weather History Graph

Search for Another Location

Airport or City:

Trip Planner

Search our weather history database for the weather conditions in past years. The results will help you decide how hot, cold, wet, or windy it might be!

Date:

Astronomy

Dec. 28, 2012 Rise Set
Actual Time 8:10 AM CET 4:51 PM CET
Civil Twilight 7:35 AM CET 5:26 PM CET
Nautical Twilight 6:58 AM CET 6:03 PM CET
Astronomical Twilight 6:21 AM CET 6:40 PM CET
Moon 5:16 PM CET 7:51 AM CET
Length of Visible Light 9h 50m
Length of Day
8h 41m
Full, 100% of the Moon is Illuminated
Dec 28
Full
Jan 5
Last Quarter
Jan 11
New
Jan 19
First Quarter
Jan 27
Full

Hourly Weather History & Observations

Time (CET) Temp. Windchill Dew Point Humidity Pressure Visibility Wind Dir Wind Speed Gust Speed Precip Events Conditions
12:55 AM 8.6 °F -17.4 °F 5.0 °F 85% 29.86 in 0.1 mi North 42.6 mph - N/A Fog , Snow Light Snow
1:00 AM 9 °F - 6 °F 79%  in 0 mi North 42.6 mph - - Snow Light Snow
1:55 AM 8.6 °F -18.1 °F 5.0 °F 85% 29.80 in 0.1 mi North 46.0 mph - N/A Fog , Snow Light Snow
2:55 AM 6.8 °F -20.9 °F 3.2 °F 85% 29.80 in 0.1 mi North 47.2 mph - N/A Fog , Snow Light Snow
3:55 AM 6.8 °F -21.1 °F 3.2 °F 85% 29.86 in 0.1 mi North 48.3 mph - N/A Fog , Snow Light Snow
4:00 AM 7 °F - 4 °F 79%  in 0 mi North 48.3 mph - - Snow Light Snow
4:55 AM 6.8 °F -19.3 °F 3.2 °F 85% 29.92 in 0.1 mi North 40.3 mph - N/A Fog , Snow Light Snow
5:55 AM 6.8 °F -18.2 °F 3.2 °F 85% 29.92 in 0.1 mi North 35.7 mph - N/A Fog , Snow Light Snow
6:55 AM 5.0 °F -21.0 °F 1.4 °F 85% 29.98 in 0.3 mi North 36.8 mph - N/A Fog , Snow Light Snow
7:00 AM 5 °F - 2 °F 80%  in 0 mi North 36.8 mph - - Snow Light Snow
7:55 AM 6.8 °F -19.9 °F 1.4 °F 79% 30.01 in 1.2 mi North 42.6 mph - N/A   Mostly Cloudy
8:55 AM 6.8 °F -19.9 °F 1.4 °F 79% 30.06 in 6.2 mi North 42.6 mph - N/A   Mostly Cloudy
9:55 AM 8.6 °F -13.8 °F -2.2 °F 62% 30.15 in 6.2 mi North 28.8 mph - N/A   Overcast
10:00 AM 8 °F - -1 °F 51%  in 9 mi North 28.8 mph - -   Overcast
10:55 AM 8.6 °F -16.6 °F -2.2 °F 62% 30.18 in 0.2 mi NNE 39.1 mph - N/A Fog Light Freezing Fog
11:55 AM 10.4 °F -12.3 °F 5.0 °F 79% 30.21 in 0.5 mi North 32.2 mph - N/A   Unknown
12:55 PM 14.0 °F -6.5 °F 10.4 °F 86% 30.21 in 0.5 mi North 28.8 mph - N/A Fog Light Freezing Fog
1:00 PM 13 °F - 10 °F 80%  in 0 mi North 28.8 mph - - Fog Heavy Fog
1:55 PM 14.0 °F -9.3 °F 10.4 °F 86% 30.18 in 0.3 mi NNE 40.3 mph - N/A Fog Light Freezing Fog
2:55 PM 14.0 °F -10.9 °F 10.4 °F 86% 30.18 in 0.5 mi ENE 48.3 mph - N/A Fog Light Freezing Fog
3:55 PM 14.0 °F -10.2 °F 10.4 °F 86% 30.18 in 0.5 mi ENE 44.9 mph - N/A Fog Light Freezing Fog
4:00 PM 14 °F - 11 °F 83%  in 0 mi ENE 44.9 mph - - Snow Light Snow
4:55 PM 15.8 °F -7.5 °F 12.2 °F 86% 30.21 in 6.2 mi ENE 43.7 mph - N/A   Mostly Cloudy
5:55 PM 15.8 °F -7.0 °F 12.2 °F 86% 30.24 in 6.2 mi ENE 41.4 mph - N/A   Mostly Cloudy
6:55 PM 15.8 °F -6.6 °F 14.0 °F 93% 30.24 in 6.2 mi ENE 39.1 mph - N/A   Mostly Cloudy
7:00 PM 17 °F - 14 °F 81%  in 6 mi ENE 39.1 mph - -   Partly Cloudy
7:55 PM 17.6 °F -3.3 °F 14.0 °F 86% 30.27 in 6.2 mi NNE 35.7 mph - N/A   Scattered Clouds
8:55 PM 19.4 °F -1.8 °F 15.8 °F 86% 30.30 in 6.2 mi North 40.3 mph - N/A   Scattered Clouds
9:55 PM 15.8 °F -4.7 °F 12.2 °F 86% 30.30 in 6.2 mi NNE 31.1 mph - N/A   Partly Cloudy
10:00 PM 16 °F - 13 °F 80%  in 6 mi NNE 31.1 mph - -   Scattered Clouds
10:55 PM 15.8 °F -1.5 °F 12.2 °F 86% 30.30 in - NNE 20.7 mph - N/A   Clear
11:55 PM 17.6 °F 1.7 °F 12.2 °F 79% 30.33 in - ENE 18.4 mph - N/A   Clear